Location: Kellogg
(38.0159°N, 90.0546°W)
Time: 14:07:12
(UTC+00:00)

Transit 2A - Visible Passes

Search period start: 13 September 2024 00:00
Search period end: 23 September 2024 00:00
Orbit: 590 x 961 km, 66.7° (Epoch: 13 September)

Date Brightness Start Highest point End Pass type
(mag) Time Alt. Az. Time Alt. Az. Time Alt. Az.
13 Sep 6.3 00:38:43 10° SSW 00:44:25 70° ESE 00:50:38 10° NNE visible
13 Sep 8.7 02:23:42 10° W 02:28:14 22° NW 02:32:59 10° N visible
13 Sep 7.5 09:27:24 10° NNW 09:33:19 43° NE 09:38:48 10° SE visible
13 Sep 7.1 11:11:04 10° NW 11:16:13 29° WSW 11:21:02 10° SSW visible
14 Sep 8.3 01:47:23 10° WSW 01:52:32 30° NW 01:57:58 10° N visible
14 Sep 8.0 08:52:14 10° N 08:57:42 31° NE 09:02:49 10° ESE visible
14 Sep 6.6 10:35:15 10° NW 10:41:01 44° WSW 10:46:20 10° S visible
15 Sep 7.7 01:11:21 10° SW 01:16:54 41° NW 01:22:49 10° NNE visible
15 Sep 8.5 08:17:12 10° N 08:22:00 23° NE 08:26:33 10° E visible
15 Sep 6.2 09:59:37 10° NNW 10:05:44 66° WSW 10:11:20 10° SSE visible
16 Sep 7.1 00:35:35 10° SW 00:41:21 59° WNW 00:47:33 10° NNE visible
16 Sep 9.3 02:23:28 10° WNW 02:25:56 12° NW 02:28:28 10° NNW visible
16 Sep 8.8 07:42:20 10° N 07:46:12 17° NE 07:49:54 10° E visible
16 Sep 6.2 09:24:09 10° NNW 09:30:22 85° ENE 09:36:02 10° SSE visible
16 Sep 7.8 11:10:04 10° WNW 11:12:31 13° W 11:14:54 10° SW visible
17 Sep 9.1 01:46:15 10° W 01:50:03 17° NW 01:53:59 10° N visible
17 Sep 9.1 07:07:51 10° NNE 07:10:18 12° NE 07:12:42 10° ENE visible
17 Sep 6.7 08:48:46 10° NNW 08:54:54 59° ENE 09:00:30 10° SE visible
17 Sep 7.4 10:33:12 10° WNW 10:37:26 20° WSW 10:41:25 10° SSW visible
18 Sep 8.8 01:09:35 10° W 01:14:15 23° NW 01:19:07 10° N visible
18 Sep 8.4 08:13:29 10° NNW 08:15:28 20° N 08:15:28 20° N visible
18 Sep8.910:09:08S10:09:08S09:55:41NWvisible
19 Sep 8.3 00:33:18 10° WSW 00:38:32 31° NW 00:44:03 10° N visible
19 Sep 8.9 07:38:19 10° N 07:39:02 13° N 07:39:02 13° N visible
20 Sep 9.2 07:03:16 10° N 07:03:18 10° N 07:03:18 10° N visible
21 Sep 9.1 01:09:08 10° WNW 01:11:51 13° NW 01:14:37 10° NNW visible
22 Sep 8.9 00:32:00 10° W 00:35:57 17° NW 00:40:03 10° N visible
